Probability
0 0 0 0 0 0 0 0 0 0 0 0 0 0 0 0 0 0 0 0 0 0 0 0 0 0 0 0 0 0 0 0 0 0 3 3 3 3 0 0 0 0 0
0 0 0 0 0 0 0 0 0 0 0 0 0 0 0 0 0 0 0 0 0 0 0 0 0 0 0 0 0 0 0 0 0 0 0 0 3 3 0 0 0 0 0
0 0 0 0 0 0 0 0 0 0 0 0 0 0 0 0 0 0 0 0 0 0 0 0 0 0 0 0 0 0 0 0 0 0 0 0 3 0 0 0 0 0 0
0 0 0 0 0 0 0 0 0 0 0 0 0 0 0 0 0 0 0 0 0 0 0 0 0 0 0 0 0 0 0 0 0 0 0 0 0 0 0 0 0 0 0
0 0 0 0 0 0 0 0 0 0 0 0 0 0 0 0 0 0 0 0 0 0 0 0 0 0 0 0 0 0 0 0 0 0 0 0 0 0 0 0 0 0 0
0 0 0 0 0 0 0 0 0 0 0 0 0 0 0 0 0 0 0 0 0 0 0 0 0 0 0 0 0 0 0 0 0 0 0 0 0 0 0 0 0 0 0
0 0 0 0 0 0 0 0 0 0 0 0 0 0 0 0 0 0 0 0 0 0 0 0 0 0 0 0 0 0 0 0 0 0 0 0 0 0 0 0 0 0 0
0 0 0 0 0 0 0 0 0 0 0 0 0 0 0 0 0 0 0 0 0 0 0 0 0 0 0 0 0 0 0 0 0 0 0 0 0 0 0 0 0 0 0
0 0 0 0 0 0 0 0 0 0 0 0 0 0 0 0 0 0 0 0 0 0 0 0 0 0 0 0 0 0 0 0 0 0 0 0 0 0 0 0 0 0 0
0 0 0 0 0 0 0 0 0 0 0 0 0 0 0 0 0 0 0 0 0 0 0 0 0 0 0 0 0 0 0 0 0 0 0 0 0 0 0 0 0 0 0
0 0 0 0 0 0 0 0 0 0 0 0 0 0 0 0 0 0 0 0 0 0 0 0 0 0 0 0 0 0 0 0 0 0 0 0 0 0 0 0 0 0 0
0 0 0 0 0 0 0 0 0 0 0 0 0 0 0 0 0 0 0 0 0 0 0 0 0 0 0 0 0 0 0 0 0 0 0 0 0 0 0 0 0 0 0
0 0 0 0 0 0 0 0 0 0 0 0 0 0 0 0 0 0 0 0 0 0 0 0 0 0 0 0 0 0 0 0 0 0 0 0 0 0 0 0 0 0 0
0 0 0 0 0 0 0 0 0 0 0 0 0 0 0 0 0 0 0 0 0 0 0 0 0 0 0 0 0 0 0 0 0 0 0 0 0 0 0 0 0 0 0
0 0 0 0 0 0 0 0 0 0 0 0 0 0 0 0 0 0 0 0 0 0 0 0 0 0 0 0 0 0 0 0 0 0 0 0 0 0 0 0 0 0 0
0 0 0 0 0 0 0 0 0 0 0 0 0 0 0 0 0 0 0 0 0 0 0 0 0 0 0 0 0 0 0 0 0 0 0 0 0 0 0 0 0 0 0
0 0 0 0 0 0 0 0 0 0 0 0 0 0 0 0 0 0 0 0 0 0 0 0 0 0 0 0 0 0 0 0 0 0 0 0 0 0 0 0 0 0 0
0 0 0 0 0 0 0 0 0 0 0 0 0 0 0 0 0 0 0 0 0 0 0 0 0 0 0 0 0 0 0 0 0 0 0 0 0 0 0 0 0 0 0
0 0 0 0 0 0 0 0 0 0 0 0 0 0 0 0 0 0 0 0 0 0 0 0 0 0 0 0 0 0 0 0 0 0 0 0 0 0 0 0 0 0 0
0 0 0 0 0 0 0 0 0 0 0 0 0 0 0 0 0 0 0 0 0 0 0 0 0 0 0 0 0 0 0 0 0 0 0 0 0 0 0 0 0 0 0
0 0 0 0 0 0 0 0 0 0 0 0 0 0 0 0 0 0 0 0 0 0 0 0 0 0 0 0 0 0 0 0 0 0 0 0 0 0 0 0 0 0 0
0 0 0 0 0 0 0 0 0 0 0 0 0 0 0 0 0 0 0 0 0 0 0 0 0 0 0 0 0 0 0 0 0 0 0 0 0 0 0 0 0 0 0
0 0 0 0 0 0 0 0 0 0 0 0 0 0 0 0 0 0 0 0 0 0 0 0 0 0 0 0 0 0 0 0 0 0 0 0 0 0 0 0 0 0 0
0 0 0 0 0 0 0 0 0 0 0 0 0 0 0 0 0 0 0 0 0 0 0 0 0 0 0 0 0 0 0 0 0 0 0 0 0 0 0 0 0 0 0
0 0 0 0 0 0 0 0 0 0 0 0 0 0 0 0 0 0 0 0 0 0 0 0 0 0 0 0 0 0 0 0 0 0 0 0 0 0 0 0 0 0 0
0 0 0 0 0 0 0 0 0 0 0 0 0 0 0 0 0 0 0 0 0 0 0 0 0 0 0 0 0 0 0 0 0 0 0 0 0 0 0 0 0 0 0
Height
5779 5781 5782 5784 5785 5787 5789 5791 5792 5794 5795 5797 5798 5799 5800 5801 5802 5803 5804 5806 5807 5808 5809 5810 5811 5812 5813 5814 5814 5815 5816 5817 5818 5819 5819 5820 5821 5821 5822 5823 5824 5824 5825
5771 5773 5774 5775 5777 5779 5781 5783 5784 5786 5788 5789 5791 5792 5793 5794 5795 5797 5798 5799 5800 5801 5802 5803 5805 5806 5807 5807 5808 5809 5810 5811 5812 5813 5813 5814 5815 5816 5817 5818 5818 5819 5820
5762 5763 5765 5766 5768 5770 5772 5774 5776 5778 5779 5781 5783 5784 5785 5786 5788 5789 5790 5792 5793 5794 5795 5796 5798 5799 5800 5801 5802 5803 5804 5805 5805 5806 5807 5808 5809 5810 5811 5812 5813 5813 5814
5752 5754 5755 5757 5759 5761 5763 5765 5767 5768 5770 5772 5774 5775 5776 5778 5779 5781 5782 5784 5785 5786 5787 5789 5790 5791 5792 5793 5794 5795 5796 5798 5799 5799 5800 5801 5802 5803 5804 5805 5806 5807 5808
5741 5743 5745 5746 5748 5750 5752 5754 5756 5759 5761 5762 5764 5766 5767 5769 5770 5772 5773 5775 5776 5778 5779 5780 5782 5783 5784 5785 5786 5788 5789 5790 5791 5792 5793 5794 5795 5796 5797 5798 5799 5800 5801
5730 5732 5733 5735 5737 5739 5741 5743 5746 5748 5750 5752 5754 5756 5757 5759 5760 5762 5763 5765 5767 5768 5770 5771 5773 5774 5775 5777 5778 5779 5780 5781 5782 5784 5785 5786 5787 5788 5789 5790 5791 5792 5793
5718 5720 5722 5723 5725 5728 5730 5732 5734 5736 5739 5741 5743 5745 5747 5748 5750 5752 5753 5755 5756 5758 5760 5761 5763 5764 5766 5767 5769 5770 5771 5772 5773 5775 5776 5777 5778 5779 5780 5781 5782 5783 5785
5706 5708 5710 5712 5714 5716 5718 5720 5722 5725 5727 5729 5732 5734 5736 5739 5739 5741 5743 5744 5746 5747 5749 5751 5752 5754 5756 5757 5758 5760 5761 5762 5764 5765 5766 5767 5768 5769 5770 5771 5773 5774 5775
5694 5695 5697 5699 5701 5704 5706 5708 5710 5713 5715 5717 5720 5722 5725 5727 5729 5731 5732 5733 5735 5736 5738 5739 5741 5743 5744 5746 5748 5749 5750 5752 5753 5754 5756 5757 5758 5759 5760 5761 5762 5763 5765
5681 5683 5685 5687 5689 5691 5693 5695 5698 5700 5703 5705 5708 5710 5712 5715 5717 5720 5721 5722 5723 5724 5726 5728 5729 5731 5732 5734 5736 5737 5738 5740 5741 5743 5744 5746 5747 5748 5749 5750 5751 5752 5753
5669 5670 5672 5674 5676 5678 5681 5683 5685 5688 5690 5693 5695 5697 5700 5702 5704 5706 5709 5710 5711 5712 5713 5715 5716 5718 5720 5721 5723 5724 5726 5727 5729 5730 5732 5733 5734 5736 5736 5738 5739 5740 5741
5656 5657 5659 5661 5663 5666 5668 5670 5673 5675 5678 5680 5682 5685 5687 5689 5692 5693 5695 5697 5699 5700 5701 5702 5703 5705 5706 5708 5709 5711 5712 5714 5715 5717 5718 5720 5721 5722 5723 5724 5725 5727 5729
5643 5645 5646 5648 5650 5653 5656 5658 5660 5663 5665 5667 5670 5672 5674 5676 5678 5680 5682 5684 5686 5687 5688 5689 5690 5691 5692 5694 5695 5696 5698 5699 5701 5702 5704 5705 5707 5708 5709 5710 5712 5713 5715
5631 5632 5633 5635 5638 5640 5643 5645 5648 5650 5652 5654 5656 5659 5661 5663 5665 5667 5669 5671 5673 5675 5676 5677 5677 5677 5678 5679 5681 5682 5683 5685 5686 5687 5689 5690 5692 5693 5694 5696 5697 5698 5700
5618 5620 5621 5623 5625 5628 5630 5632 5635 5637 5639 5641 5643 5645 5647 5649 5651 5653 5655 5657 5659 5661 5663 5664 5664 5664 5664 5665 5666 5667 5668 5670 5671 5672 5674 5675 5676 5678 5679 5681 5681 5683 5685
5605 5607 5609 5611 5613 5615 5617 5619 5621 5623 5625 5627 5629 5631 5633 5635 5637 5639 5641 5642 5644 5646 5648 5650 5650 5650 5650 5651 5652 5653 5653 5655 5656 5657 5658 5660 5661 5662 5663 5665 5666 5667 5669
5592 5594 5596 5598 5600 5601 5603 5605 5607 5609 5612 5614 5615 5617 5619 5621 5623 5624 5626 5627 5629 5630 5633 5635 5635 5636 5636 5636 5637 5637 5638 5639 5640 5641 5642 5644 5645 5646 5647 5649 5650 5652 5653
5579 5581 5582 5584 5586 5588 5590 5592 5594 5596 5598 5599 5601 5602 5604 5606 5608 5610 5611 5612 5614 5615 5617 5619 5620 5620 5621 5621 5622 5622 5623 5623 5624 5625 5626 5627 5628 5629 5631 5632 5633 5635 5636
5565 5567 5569 5570 5572 5574 5575 5577 5579 5581 5583 5585 5586 5587 5589 5591 5593 5594 5596 5597 5598 5599 5600 5602 5604 5604 5605 5605 5605 5606 5606 5607 5608 5609 5609 5610 5611 5612 5613 5615 5616 5618 5619
5551 5553 5555 5556 5558 5559 5561 5562 5564 5566 5568 5570 5571 5572 5574 5575 5577 5578 5580 5581 5582 5583 5584 5585 5587 5588 5588 5588 5588 5589 5590 5590 5591 5591 5592 5593 5594 5595 5596 5597 5599 5600 5601
5537 5538 5540 5541 5543 5544 5546 5547 5549 5551 5552 5554 5555 5557 5558 5560 5561 5562 5564 5565 5565 5566 5567 5568 5569 5570 5571 5571 5571 5572 5572 5573 5573 5574 5575 5576 5577 5578 5578 5579 5580 5581 5582
5523 5524 5525 5527 5528 5529 5530 5531 5533 5535 5536 5538 5539 5541 5542 5544 5545 5546 5547 5548 5549 5550 5551 5551 5552 5553 5554 5554 5554 5554 5554 5555 5557 5558 5557 5558 5558 5559 5560 5561 5562 5563 5564
5510 5511 5511 5512 5513 5513 5514 5515 5516 5518 5520 5522 5523 5524 5526 5527 5528 5529 5530 5531 5532 5533 5534 5534 5535 5536 5536 5536 5536 5536 5535 5536 5538 5538 5538 5541 5540 5541 5542 5542 5543 5544 5545
5497 5497 5497 5498 5498 5499 5499 5499 5500 5502 5503 5505 5506 5508 5509 5510 5511 5512 5513 5515 5515 5516 5516 5517 5518 5519 5518 5518 5517 5518 5518 5518 5519 5519 5519 5522 5523 5523 5524 5524 5524 5525 5526
5484 5484 5484 5484 5484 5484 5484 5484 5484 5486 5487 5489 5490 5491 5492 5493 5495 5495 5497 5498 5499 5499 5499 5499 5500 5500 5500 5500 5500 5500 5500 5500 5502 5503 5501 5503 5505 5505 5506 5507 5507 5507 5508
5471 5471 5471 5470 5470 5470 5469 5469 5469 5470 5472 5473 5473 5474 5475 5476 5477 5478 5479 5481 5482 5482 5482 5482 5482 5483 5482 5482 5482 5483 5483 5484 5484 5486 5485 5485 5486 5485 5488 5490 5490 5489 5489
Wind_Speed
34 33 34 34 33 33 33 33 32 31 31 30 30 29 28 28 28 28 28 28 28 27 27 26 26 26 26 26 26 25 25 25 25 25 25 24 23 22 22 22 21 20 20
36 36 36 35 35 35 35 35 35 34 33 32 32 32 31 31 30 30 29 29 29 29 29 29 28 28 28 28 28 28 27 26 27 26 26 26 26 25 24 23 23 22 22
38 38 38 38 38 37 37 37 37 36 36 35 35 34 34 33 33 32 32 32 31 32 32 31 31 30 30 30 30 30 30 29 28 28 28 28 28 27 26 25 25 24 24
39 40 40 40 40 40 40 40 39 39 38 38 37 36 36 36 35 35 34 34 34 33 33 33 33 33 32 32 32 32 32 31 31 30 30 30 30 30 29 29 28 27 27
41 42 42 42 42 42 43 42 42 42 41 41 40 39 38 38 37 37 37 36 36 36 35 35 35 35 35 35 34 34 33 33 33 32 32 32 32 31 32 31 31 30 30
43 43 43 43 43 43 44 44 44 44 44 43 43 42 42 41 40 40 39 38 38 38 37 37 36 36 37 37 36 36 35 35 34 34 34 34 34 33 33 33 33 33 32
44 44 44 45 45 45 45 45 45 45 45 45 45 44 43 43 43 42 41 41 40 40 40 40 40 39 39 39 39 38 37 37 37 36 36 36 36 35 35 34 35 35 35
46 46 45 46 46 46 46 46 46 46 46 45 45 45 45 44 44 44 43 43 43 42 42 42 42 42 42 41 41 41 40 40 40 39 39 38 38 38 38 37 37 37 37
47 47 46 47 47 47 47 46 47 46 46 46 46 46 46 46 46 45 44 45 45 44 44 45 45 45 45 45 44 44 44 43 43 42 42 41 41 41 40 40 40 40 40
48 48 47 47 47 47 47 47 47 47 47 47 47 47 47 47 47 46 46 46 47 47 47 47 48 48 48 47 47 47 47 46 46 45 45 44 44 43 43 43 43 43 42
48 48 48 48 48 47 47 48 48 48 48 48 48 48 48 47 47 47 46 47 47 48 48 49 49 49 50 50 49 49 49 49 49 48 48 47 47 46 46 46 46 46 46
48 48 49 49 48 48 48 48 47 47 48 48 48 48 48 48 47 47 47 47 47 47 48 49 50 50 50 51 51 51 51 51 51 50 50 50 50 50 49 49 49 49 48
48 49 49 49 49 48 48 48 48 48 48 49 49 49 49 48 48 48 48 47 46 46 47 48 49 49 50 51 51 52 52 52 52 52 52 52 52 52 51 51 51 50 50
48 48 48 48 48 48 48 48 48 49 49 50 50 50 50 50 50 49 49 49 49 48 49 49 49 50 50 51 51 52 53 53 53 53 53 53 53 53 53 52 52 52 52
48 48 47 47 47 48 49 50 50 49 50 50 51 51 51 51 51 51 51 51 51 50 50 49 50 50 51 52 52 53 53 54 53 53 54 53 53 54 54 54 53 53 53
50 49 49 49 49 49 49 49 49 49 50 51 51 52 52 52 52 52 53 53 53 53 51 51 52 52 52 53 53 53 54 54 54 54 55 55 54 55 55 55 55 55 55
51 50 50 51 51 51 51 51 51 52 52 52 53 53 53 53 53 53 54 54 54 55 54 53 53 53 54 54 54 55 55 55 55 55 55 55 55 56 56 55 56 56 56
51 51 51 52 52 51 52 53 53 53 54 54 54 54 54 54 55 55 55 55 56 56 56 55 55 55 55 55 56 56 56 56 56 56 56 56 57 58 58 58 58 57 58
51 52 52 52 52 52 52 52 52 53 54 55 56 55 55 56 56 56 56 56 56 57 57 56 56 56 56 57 57 57 57 57 58 58 58 58 58 59 59 59 60 60 60
51 52 53 54 54 54 54 54 54 54 54 55 56 56 56 57 56 56 56 56 57 57 57 57 58 57 58 58 58 58 58 59 59 59 59 60 60 60 60 60 60 61 61
51 52 54 55 55 55 56 56 56 56 55 55 56 56 57 57 57 57 57 57 57 58 58 58 58 59 58 59 59 59 60 60 60 60 61 61 61 60 60 60 61 61 62
50 51 53 54 55 56 57 57 57 57 57 57 57 58 58 57 57 57 58 58 58 58 58 58 58 59 59 60 60 61 61 61 61 61 61 61 62 61 61 61 62 62 62
48 49 50 51 52 53 54 56 57 58 58 58 58 59 59 58 58 58 58 58 58 59 59 58 58 58 58 59 60 60 61 61 61 60 61 61 62 61 61 61 62 62 62
47 47 48 49 50 50 52 53 54 56 57 57 57 58 58 58 58 59 59 58 58 58 58 58 58 58 58 58 58 59 59 58 58 58 59 59 60 60 61 61 62 62 62
45 45 46 48 49 49 50 52 53 54 55 56 56 57 57 57 58 59 59 59 58 57 58 58 58 58 57 58 57 56 57 57 56 56 57 57 58 59 59 60 61 61 61
43 44 45 46 47 48 49 50 51 52 53 54 55 56 57 57 57 57 58 57 57 56 57 57 57 56 56 56 56 55 55 55 54 54 55 56 56 57 57 57 58 58 59
Wind_Direction
255 256 256 257 255 255 255 255 256 258 259 260 261 261 262 263 263 263 262 261 261 261 261 261 261 261 261 261 261 261 262 263 263 263 262 263 263 262 263 262 263 264 265
257 256 256 256 256 256 256 256 257 258 259 260 260 260 261 261 262 261 261 261 261 261 262 262 262 261 261 261 261 262 261 263 262 263 263 262 262 262 262 261 261 263 264
258 257 256 255 255 255 257 258 258 258 259 260 260 260 260 260 260 261 260 261 261 261 262 262 262 262 262 261 261 262 262 262 262 262 262 262 262 262 262 261 260 261 263
258 258 258 257 257 257 257 258 258 258 259 259 260 260 261 261 261 261 260 260 261 262 262 262 262 262 262 262 262 261 262 262 262 263 262 263 263 263 262 261 260 261 261
259 259 259 258 258 258 258 258 258 258 258 259 260 261 261 262 261 261 261 260 260 261 261 262 262 262 262 262 262 261 262 262 262 263 263 263 263 264 263 262 260 261 261
259 258 258 258 259 259 259 259 259 259 259 259 260 261 261 262 262 262 262 261 260 260 261 261 262 262 262 262 262 262 262 262 262 263 264 264 263 264 264 263 261 261 261
258 258 258 259 259 259 260 260 259 259 259 260 260 260 261 262 262 261 261 261 260 260 260 261 261 262 262 262 262 262 262 262 262 263 264 264 264 264 263 264 263 261 261
259 259 259 259 259 259 259 259 259 259 259 260 260 261 260 260 260 261 261 260 260 260 260 261 261 262 262 262 262 261 261 262 262 263 263 264 265 265 264 264 264 263 262
260 260 259 260 259 259 259 258 258 257 258 259 259 260 260 259 259 260 260 260 260 260 260 260 260 261 262 262 262 262 262 262 262 263 264 264 265 265 266 265 265 263 263
260 260 260 260 260 259 258 257 257 257 258 259 259 260 260 260 259 259 260 260 261 261 261 261 261 261 262 262 263 262 262 262 262 262 263 264 265 265 266 266 265 264 263
261 261 261 260 260 259 259 259 258 257 258 258 259 260 260 261 261 260 260 260 261 261 262 262 262 262 262 262 263 263 263 262 262 263 263 264 265 266 266 266 266 264 264
262 261 261 261 260 259 259 259 258 257 257 258 259 260 260 260 260 260 260 260 261 262 262 263 263 263 263 263 263 264 263 263 263 263 264 264 265 265 265 265 265 264 264
262 261 261 260 259 259 259 259 258 258 258 258 259 259 260 260 260 260 261 260 260 262 263 265 264 263 263 263 264 264 264 264 264 263 264 264 265 265 265 264 264 263 263
261 261 261 260 259 259 259 259 259 259 259 258 258 259 260 261 261 261 262 262 261 262 264 266 266 265 265 265 264 264 264 264 264 264 264 264 264 265 265 265 264 263 263
260 259 259 259 259 259 259 258 259 259 259 259 260 260 261 261 261 262 262 263 263 263 264 266 267 268 267 266 266 265 265 265 265 264 264 264 265 265 264 264 264 263 263
259 259 259 258 259 259 259 259 259 259 259 260 260 261 261 261 262 262 263 264 264 265 266 266 267 269 269 268 268 267 266 265 265 265 265 265 265 265 265 265 265 264 263
258 258 258 258 259 259 260 261 261 261 261 261 262 262 262 262 262 263 264 265 265 266 266 267 267 268 269 269 268 268 267 267 266 266 266 266 266 265 265 265 265 264 263
259 259 259 259 259 259 260 260 260 261 261 261 262 262 262 262 262 263 265 265 266 267 267 267 268 268 268 268 267 267 268 267 266 266 266 266 266 265 265 265 264 264 264
259 259 259 259 259 259 260 261 261 261 261 261 261 262 262 262 263 264 265 266 267 267 267 267 268 268 268 269 268 267 267 267 266 266 266 266 266 266 266 265 264 264 264
259 260 260 259 259 260 261 261 261 261 261 262 262 262 262 263 264 265 265 266 267 267 268 267 267 268 269 269 268 267 267 268 267 267 266 265 265 265 265 265 265 264 264
262 261 261 261 261 262 262 262 261 261 261 261 262 263 264 264 265 265 266 266 267 268 268 268 268 268 268 269 269 269 268 268 268 267 266 266 265 265 265 265 265 264 264
263 262 263 263 263 263 263 262 262 262 262 262 262 263 264 264 265 265 266 266 267 268 269 269 269 269 268 269 269 270 269 268 267 267 266 266 266 266 266 265 265 265 264
264 264 264 264 265 265 264 264 263 263 263 264 264 265 265 265 265 265 265 266 268 268 269 269 269 269 269 269 270 270 270 269 268 267 267 266 266 266 266 266 265 265 265
266 266 265 265 266 265 265 264 264 264 264 264 265 265 265 265 265 265 266 266 267 267 268 269 269 269 269 270 270 270 269 269 269 267 268 267 266 266 265 265 265 265 265
267 268 268 267 267 267 266 266 265 265 265 265 265 265 265 265 265 266 266 266 267 267 268 268 268 268 269 270 270 270 269 269 269 268 268 268 268 267 265 265 266 266 266
269 270 270 270 269 268 267 266 266 266 266 266 266 266 265 265 265 266 266 266 266 267 268 269 268 268 268 269 270 270 270 270 269 268 269 269 269 268 266 265 266 266 266